Location: Burgwalden
(48.2830°N, 10.7576°E)
Time: 01:49:29
(UTC+00:00)

Cosmos 1937 Rocket - Pass Details

Date: 26 September 2023
Orbit: 744 x 779 km, 74.0° (Epoch: 04 December)

Event Time Altitude Azimuth Distance (km) Brightness Sun altitude
Exits shadow 03:01:59 49° 241° (WSW) 963 3.5 -21.3°
Maximum altitude 03:03:10 64° 295° (WNW) 833 3.4 -21.1°
Drops below altitude 10° 03:08:19 10° 18° (NNE) 2,292 6.5 -20.3°
Sets 03:10:44 0° 21° (NNE) 3,227 7.4 -20.0°
